Location: Los Ranchitos
(37.9930°N, 122.5425°W)
Time: 02:41:30
(UTC+00:00)

Milstar 3 Cent rocket - Pass Details

Date: 21 September 2020
Orbit: 707 x 5145 km, 28.3° (Epoch: 27 October)

Event Time Altitude Azimuth Distance (km) Brightness Sun altitude
Rises 04:36:44 0° 248° (WSW) 4,063 6.3 -28.9°
Reaches altitude 10° 04:40:19 10° 237° (WSW) 2,676 5.1 -29.6°
Enters shadow 04:43:06 22° 215° (SW) 1,744 3.9 -30.0°
